星链-36235(STARLINK-36235)

导读

STARLINK-36235(NORAD编号68400)是SpaceX星链(Starlink)星座中的一颗低轨通信卫星,属于Starlink第二代卫星组网序列,运行在近地轨道区域,为全球用户提供卫星互联网接入服务。 作为星链大规模组网中的一员,它依托Ku/Ka频段传输信号,支持宽带互联服务,适配偏远地区、移动场景等特殊联网需求。当前SpaceX正推进星链轨道优化,2026年计划将数千颗星链卫星轨道高度从550公里降至480公里,该卫星也将纳入此次调整,以降低碰撞风险、提升太空运行安全性。

Basic Information
目录编号:
68400
目录名称:
STARLINK-36235
国际标识:
2026-063W
轨道中心:
EARTH
卫星名称:
星链-36235
卫星全名:
星链-36235(STARLINK-36235)
卫星状态:
在轨 (已飞行124 天)
发射日期:
2026-03-26 UTC
国别 :
美国 (US)
星等 :
--
Orbit Information
数据来源 国际轨道数据 AOE轨道数据
星历时间 2026-07-27T23:27:48+0800
10小时前
查看轨道信息
2026-07-25T06:00:00+0800
3天前
查看轨道信息
半长轴 6843.635km 6843.785km
偏心率 0.0000056 0.0000992
轨道倾角 97.285° 97.285°
近地点辐角 285.708° 109.707°
升交点赤经 350.311° 347.622°
平近点角 74.416° 322.455°
近地点 465.459km 464.969km
远地点 465.537km 466.327km
周期 93.905分钟 93.908分钟
每日圈数 15.334604 15.334101
Detailed Information
固有亮度:
5
最大亮度:
2.5
卫星平台:
Starlink V1.0
覆盖范围:
全球
运营商:
太空探索技术公司
运营商所在国:
美国
制造商(研发单位):
太空探索技术公司
制造商所在国:
美国
使用方式:
暂无
Satellite Introduction
Starlink 计划是 SpaceX 推出的全球卫星互联网项目,通过发射低轨道卫星,为全球尤其是偏远地区提供高速、低延迟的互联网服务。自 2019 年起,Starlink 已部署数千颗卫星,旨在缩小全球数字鸿沟,推动互联网普及。该项目还为军事、航空等行业提供通信支持,带来广泛经济效益。
2D Orbit Map
3D Orbit Map
Orbit Altitude Analysis Chart
Orbit Inclination Analysis Chart
Orbit Comprehensive Analysis Chart
View Comprehensive Chart